EW2670 Weather Reports


Display with metric or nautical units.
time (UTC)temp
F
wind
direction
speed
MPH
gust
MPH
rain 1hr
in
rain 24hr
in
rain mn
in
humidity
%
barometer
mb
20260507070516 31 0.0 2.0 0.00 0.72 0.00 88 1016.4
20260507070016 32 225 1.0 3.0 0.00 0.72 0.00 88 1016.5
20260507065517 32 225 1.0 3.0 0.00 0.72 0.00 88 1016.6
20260507065016 32 0.0 1.0 0.00 0.72 0.00 87 1016.6
20260507064516 33 225 1.0 2.0 0.00 0.72 0.00 88 1016.8
20260507064017 33 225 1.0 2.0 0.00 0.72 0.00 87 1016.8
20260507063516 33 202 2.0 3.0 0.00 0.72 0.00 88 1016.9
20260507063016 33 202 3.0 4.0 0.00 0.72 0.00 87 1017.0
20260507062516 33 202 3.0 5.0 0.00 0.72 0.00 87 1017.1
20260507062017 33 202 3.0 5.0 0.00 0.72 0.00 88 1017.1
20260507061517 32 202 4.0 5.0 0.00 0.72 0.00 88 1017.2
20260507061016 32 202 4.0 5.0 0.00 0.72 0.00 89 1017.3
20260507060516 32 157 2.0 5.0 0.00 0.72 0.00 89 1017.4
20260507060017 32 0.0 2.0 0.00 0.72 0.00 90 1017.4
20260507055537 32 157 2.0 3.0 0.00 0.72 0.72 90 1017.4
20260507055017 32 225 1.0 3.0 0.00 0.72 0.72 90 1017.6
20260507054517 32 225 2.0 3.0 0.00 0.72 0.72 90 1017.5
20260507054017 32 225 2.0 3.0 0.00 0.72 0.72 90 1017.5
20260507053517 32 202 3.0 4.0 0.00 0.72 0.72 90 1017.4
20260507053017 31 202 3.0 5.0 0.00 0.72 0.72 90 1017.6
20260507052537 31 0.0 0.0 0.00 0.72 0.72 89 1017.6
20260507052017 31 0.0 0.0 0.00 0.72 0.72 89 1017.6
20260507051517 31 0.0 0.0 0.00 0.72 0.72 89 1018.0
20260507051017 31 0.0 0.0 0.00 0.72 0.72 88 1018.0
20260507050517 31 0.0 0.0 0.00 0.72 0.72 87 1017.9
20260507050017 32 0.0 0.0 0.00 0.72 0.72 87 1017.9
20260507045517 32 0.0 0.0 0.00 0.72 0.72 87 1018.0
20260507045037 32 247 1.0 4.0 0.00 0.72 0.72 86 1018.0
20260507044517 32 247 2.0 3.0 0.00 0.72 0.72 86 1018.0
20260507044017 32 247 3.0 6.0 0.00 0.72 0.72 87 1018.1
20260507043517 32 247 2.0 3.0 0.00 0.72 0.72 86 1018.0
20260507043037 32 247 2.0 3.0 0.00 0.72 0.72 86 1018.2
20260507042517 32 247 3.0 4.0 0.00 0.72 0.72 86 1018.3
20260507042017 32 247 2.0 3.0 0.00 0.72 0.72 86 1018.4
20260507041517 33 247 1.0 3.0 0.00 0.72 0.72 85 1018.3
20260507041019 33 247 2.0 3.0 0.00 0.72 0.72 85 1018.4
20260507040619 33 247 3.0 5.0 0.00 0.72 0.72 86 1018.4
20260507040037 33 247 2.0 3.0 0.00 0.72 0.72 86 1018.4
20260507035517 33 247 1.0 2.0 0.00 0.72 0.72 87 1018.5
20260507035017 32 247 2.0 3.0 0.00 0.72 0.72 87 1018.4
20260507034517 32 247 3.0 3.0 0.00 0.72 0.72 87 1018.4
20260507034037 32 247 3.0 3.0 0.00 0.72 0.72 86 1018.5
20260507033517 32 247 3.0 3.0 0.00 0.72 0.72 86 1018.6
20260507033017 32 247 1.0 3.0 0.00 0.72 0.72 86 1018.6
20260507032517 32 247 1.0 2.0 0.00 0.72 0.72 85 1018.8
20260507032017 32 247 1.0 2.0 0.00 0.72 0.72 86 1018.7
20260507031517 32 247 2.0 3.0 0.00 0.72 0.72 84 1018.5
20260507031017 32 247 2.0 3.0 0.00 0.72 0.72 84 1018.5
20260507030537 33 0.0 0.0 0.00 0.72 0.72 83 1018.7
20260507030017 34 0.0 0.0 0.00 0.72 0.72 82 1018.6
20260507025517 34 0.0 0.0 0.00 0.72 0.72 82 1018.6
20260507025017 34 0.0 1.0 0.00 0.72 0.72 80 1018.5
20260507024517 35 247 2.0 3.0 0.00 0.72 0.72 80 1018.5
20260507024039 35 247 2.0 3.0 0.00 0.72 0.72 80 1018.5
20260507023517 36 247 2.0 2.0 0.00 0.72 0.72 77 1018.5
20260507023017 36 247 2.0 3.0 0.00 0.72 0.72 77 1018.4
20260507022516 37 180 1.0 3.0 0.00 0.72 0.72 76 1018.4
20260507022017 37 180 2.0 3.0 0.00 0.72 0.72 75 1018.5
20260507021517 37 0.0 1.0 0.00 0.72 0.72 74 1018.4
20260507021017 38 157 1.0 2.0 0.00 0.72 0.72 72 1018.5
20260507020517 38 157 1.0 3.0 0.00 0.72 0.72 72 1018.4
20260507020017 38 157 1.0 2.0 0.00 0.72 0.72 71 1018.4
20260507015517 38 135 1.0 3.0 0.00 0.72 0.72 70 1018.4
20260507015017 38 135 3.0 5.0 0.00 0.72 0.72 70 1018.4
20260507014516 38 157 2.0 5.0 0.00 0.72 0.72 70 1018.4
20260507014057 39 157 3.0 5.0 0.00 0.72 0.72 69 1018.4
20260507013517 39 135 4.0 6.0 0.00 0.72 0.72 68 1018.4
20260507013016 39 180 4.0 7.0 0.00 0.72 0.72 69 1018.4
20260507012518 39 180 5.0 8.0 0.00 0.72 0.72 69 1018.4
20260507012016 39 135 4.0 7.0 0.00 0.72 0.72 68 1018.3
20260507011557 39 180 4.0 7.0 0.00 0.72 0.72 68 1018.3
20260507010536 39 180 5.0 9.0 0.00 0.73 0.72 67 1018.3
20260507010037 39 135 4.0 6.0 0.00 0.73 0.72 67 1018.4
20260507005516 40 157 4.0 8.0 0.00 0.73 0.72 67 1018.4
20260507005016 40 180 6.0 9.0 0.00 0.73 0.72 67 1018.5
20260507004517 40 180 6.0 11.0 0.00 0.73 0.72 67 1018.5
20260507004017 40 180 5.0 8.0 0.00 0.73 0.72 67 1018.5
20260507003516 40 157 5.0 9.0 0.00 0.73 0.72 67 1018.5
20260507003016 40 135 4.0 7.0 0.00 0.73 0.72 67 1018.6
20260507002537 40 180 5.0 7.0 0.00 0.73 0.72 68 1018.5
20260507002016 40 157 5.0 8.0 0.00 0.73 0.72 67 1018.7
20260507001516 40 180 5.0 8.0 0.00 0.73 0.72 68 1018.7
20260507001017 40 135 5.0 8.0 0.00 0.73 0.72 66 1018.8
20260507000516 40 157 5.0 7.0 0.00 0.73 0.72 66 1018.8
20260507000017 40 135 5.0 8.0 0.00 0.74 0.72 68 1018.9
20260506235517 40 157 6.0 14.0 0.00 0.74 0.72 66 1018.9
20260506235016 40 157 5.0 9.0 0.00 0.74 0.72 67 1018.9
20260506234516 39 180 7.0 11.0 0.00 0.74 0.72 68 1019.0
20260506234016 40 180 6.0 10.0 0.00 0.74 0.72 66 1019.0
20260506233516 40 135 5.0 9.0 0.00 0.74 0.72 68 1019.1
20260506233017 40 135 4.0 8.0 0.00 0.74 0.72 66 1019.1
20260506232516 40 135 4.0 7.0 0.00 0.74 0.72 67 1019.1
20260506232037 39 135 5.0 10.0 0.00 0.74 0.72 68 1019.3
20260506231516 39 135 7.0 10.0 0.00 0.74 0.72 68 1019.2
20260506231036 39 180 5.0 8.0 0.00 0.74 0.72 67 1019.2
20260506230536 39 180 6.0 10.0 0.00 0.74 0.72 68 1019.1
20260506230017 39 180 6.0 10.0 0.00 0.74 0.72 68 1019.1
20260506225516 39 180 5.0 9.0 0.00 0.74 0.72 68 1019.0
20260506225016 39 157 5.0 7.0 0.00 0.74 0.72 68 1019.3
20260506224516 39 180 4.0 8.0 0.00 0.74 0.72 69 1019.3
20260506224016 38 157 5.0 8.0 0.00 0.74 0.72 70 1019.3
20260506223517 38 135 6.0 10.0 0.00 0.74 0.72 67 1019.4
20260506223017 39 135 4.0 8.0 0.00 0.74 0.72 69 1019.4
20260506222516 39 135 4.0 9.0 0.00 0.74 0.72 70 1019.4
20260506222016 39 180 6.0 11.0 0.00 0.74 0.72 69 1019.6
20260506221517 39 180 4.0 8.0 0.00 0.74 0.72 71 1019.6
20260506221016 38 202 6.0 8.0 0.00 0.74 0.72 69 1019.7
20260506220536 38 180 6.0 9.0 0.00 0.74 0.72 71 1019.9
20260506220016 38 202 6.0 8.0 0.00 0.74 0.72 70 1020.0
20260506215516 38 180 5.0 8.0 0.00 0.74 0.72 70 1020.1
20260506215036 38 135 3.0 7.0 0.00 0.74 0.72 68 1020.0
20260506214536 37 180 4.0 8.0 0.00 0.74 0.72 70 1020.1
20260506214016 38 157 4.0 6.0 0.00 0.74 0.72 67 1020.2
20260506213516 38 180 4.0 6.0 0.00 0.74 0.72 68 1020.3
20260506213016 38 180 5.0 9.0 0.00 0.75 0.72 69 1020.3
20260506212516 38 180 5.0 7.0 0.00 0.75 0.72 68 1020.4
20260506212056 38 112 2.0 6.0 0.00 0.75 0.72 69 1020.3
20260506211516 38 180 1.0 3.0 0.00 0.76 0.72 69 1020.5
20260506211016 37 202 1.0 3.0 0.00 0.76 0.72 69 1020.5
20260506210516 38 202 1.0 2.0 0.00 0.77 0.72 69 1020.6
20260506210016 38 0.0 1.0 0.00 0.78 0.72 71 1020.7
20260506205516 37 0.0 1.0 0.00 0.78 0.72 70 1020.7
20260506205016 38 0.0 1.0 0.00 0.79 0.72 69 1020.8
20260506204516 37 0.0 2.0 0.00 0.80 0.72 71 1020.9
20260506204016 37 202 1.0 2.0 0.00 0.80 0.72 72 1020.9
20260506203516 36 202 1.0 2.0 0.00 0.80 0.72 72 1020.9
20260506203016 36 0.0 2.0 0.00 0.80 0.72 70 1021.0
20260506202536 36 180 1.0 2.0 0.01 0.80 0.72 69 1021.0
20260506202017 36 0.0 2.0 0.03 0.80 0.72 68 1021.1
20260506201516 36 0.0 0.0 0.06 0.80 0.72 68 1021.1
20260506201016 36 0.0 0.0 0.08 0.80 0.72 69 1021.2
20260506200516 35 112 2.0 3.0 0.10 0.80 0.72 68 1021.2
20260506200016 36 0.0 3.0 0.13 0.80 0.72 67 1021.3
20260506195516 36 90 2.0 5.0 0.15 0.82 0.72 67 1021.3
20260506195017 37 67 2.0 5.0 0.18 0.83 0.72 65 1021.2
20260506194516 37 90 1.0 5.0 0.20 0.83 0.72 68 1021.2
20260506194016 38 0 1.0 3.0 0.22 0.84 0.72 67 1021.4
20260506193516 37 22 1.0 3.0 0.25 0.84 0.72 68 1021.6
20260506193036 36 0.0 2.0 0.27 0.84 0.72 69 1021.4
20260506192516 36 112 1.0 2.0 0.29 0.83 0.71 70 1021.4
20260506192016 35 112 2.0 3.0 0.29 0.82 0.69 69 1021.5
20260506191616 35 112 2.0 4.0 0.28 0.79 0.66 70 1021.5
20260506191016 35 90 2.0 3.0 0.30 0.77 0.64 70 1021.5
20260506190516 35 90 2.0 5.0 0.29 0.76 0.62 70 1021.6
20260506190016 35 90 2.0 3.0 0.30 0.73 0.59 71 1021.7
20260506185516 35 90 2.0 3.0 0.29 0.72 0.57 71 1021.7
20260506185016 35 90 1.0 2.0 0.30 0.69 0.54 72 1021.6
20260506184517 35 90 2.0 3.0 0.30 0.67 0.52 75 1021.7
20260506184016 35 90 2.0 3.0 0.30 0.66 0.50 75 1021.7
20260506183536 35 90 2.0 3.0 0.28 0.63 0.47 76 1021.7
20260506183016 35 90 3.0 3.0 0.28 0.61 0.45 76 1021.7
20260506182516 35 90 3.0 5.0 0.26 0.58 0.42 76 1021.8
20260506182016 35 90 2.0 3.0 0.25 0.56 0.40 77 1021.8
20260506181517 34 90 2.0 2.0 0.23 0.53 0.37 77 1021.9
20260506181015 34 90 2.0 5.0 0.21 0.50 0.34 77 1021.9
20260506180515 35 67 1.0 4.0 0.20 0.48 0.32 77 1022.1
20260506180016 34 67 1.0 3.0 0.18 0.45 0.29 78 1022.1
20260506175536 36 45 1.0 2.0 0.17 0.44 0.27 75 1022.1
20260506175016 35 67 1.0 3.0 0.15 0.41 0.24 78 1022.1
20260506174536 36 0 2.0 3.0 0.13 0.39 0.22 77 1022.1
20260506174015 37 0 2.0 4.0 0.11 0.38 0.20 77 1022.1
20260506173516 37 0 2.0 4.0 0.11 0.37 0.19 79 1022.2
20260506173015 35 315 1.0 3.0 0.09 0.35 0.17 82 1022.1
20260506172517 35 315 1.0 3.0 0.09 0.35 0.16 82 1022.0
20260506172016 36 0 2.0 3.0 0.09 0.34 0.15 80 1022.0
20260506171536 35 315 2.0 5.0 0.08 0.34 0.13 82 1022.0
20260506171015 35 315 2.0 5.0 0.08 0.33 0.12 83 1022.0
20260506170515 35 270 2.0 4.0 0.07 0.33 0.11 84 1021.8
20260506170016 34 270 1.0 3.0 0.06 0.32 0.10 85 1021.8
20260506165516 34 270 2.0 5.0 0.06 0.32 0.10 85 1021.7
20260506165055 33 270 2.0 5.0 0.05 0.31 0.09 86 1021.6
20260506164515 33 270 2.0 5.0 0.06 0.32 0.09 87 1021.5
20260506164015 33 270 3.0 6.0 0.06 0.32 0.09 87 1021.5
20260506163515 33 270 2.0 5.0 0.06 0.32 0.08 88 1021.6
20260506163016 33 270 2.0 6.0 0.06 0.32 0.08 87 1021.5
20260506162516 33 270 2.0 5.0 0.05 0.32 0.07 88 1021.4
20260506162017 32 270 1.0 4.0 0.05 0.31 0.06 88 1021.2
20260506161538 32 270 3.0 6.0 0.05 0.32 0.06 88 1021.0
20260506161015 33 270 3.0 7.0 0.04 0.32 0.05 88 1021.0
20260506160517 33 270 3.0 7.0 0.04 0.33 0.05 88 1021.0
20260506160018 33 270 3.0 6.0 0.04 0.33 0.05 88 1021.0
20260506155517 33 292 2.0 5.0 0.03 0.33 0.04 88 1021.0
20260506155035 33 292 3.0 6.0 0.03 0.34 0.04 88 1021.0
20260506154518 33 292 2.0 5.0 0.02 0.33 0.03 89 1021.0
20260506154018 33 292 3.0 8.0 0.02 0.34 0.03 89 1021.0
20260506153558 33 292 3.0 6.0 0.01 0.33 0.02 90 1020.9
20260506153037 33 292 2.0 6.0 0.01 0.34 0.02 90 1020.7
20260506152518 32 292 4.0 8.0 0.01 0.35 0.02 90 1020.7
20260506152018 32 292 3.0 7.0 0.00 0.34 0.01 90 1020.7
20260506151517 32 315 4.0 8.0 0.00 0.35 0.01 91 1020.7
20260506151018 32 315 3.0 5.0 0.01 0.35 0.01 91 1020.7
20260506150517 32 315 3.0 7.0 0.01 0.36 0.01 91 1020.6
20260506150017 32 337 3.0 7.0 0.01 0.36 0.01 92 1020.6
20260506145518 32 337 2.0 6.0 0.01 0.37 0.01 92 1020.5
20260506145017 32 337 2.0 8.0 0.01 0.37 0.01 93 1020.5
20260506144517 32 337 2.0 5.0 0.01 0.37 0.01 93 1020.5
20260506144017 31 0.0 2.0 0.01 0.38 0.01 93 1020.5
20260506143517 32 0.0 0.0 0.01 0.38 0.01 93 1020.5
20260506143017 31 0.0 1.0 0.01 0.38 0.01 93 1020.3
20260506142517 31 0.0 0.0 0.01 0.39 0.01 93 1020.3
20260506142017 31 0.0 0.0 0.01 0.39 0.01 94 1020.3
20260506141518 31 0.0 0.0 0.01 0.40 0.01 94 1020.2
20260506141037 31 0.0 0.0 0.00 0.39 0.00 94 1020.3
20260506140517 31 0.0 0.0 0.00 0.39 0.00 94 1020.3
20260506140017 31 0.0 0.0 0.00 0.40 0.00 94 1020.2
20260506135517 31 0.0 0.0 0.00 0.40 0.00 94 1020.2
20260506135017 31 0.0 0.0 0.00 0.41 0.00 94 1020.0
20260506134517 31 0.0 0.0 0.00 0.41 0.00 95 1020.1
20260506134017 31 0.0 0.0 0.00 0.41 0.00 95 1020.0
20260506133517 31 0.0 0.0 0.00 0.41 0.00 95 1020.0
20260506133017 31 0.0 0.0 0.00 0.41 0.00 95 1019.9
20260506132537 31 0.0 0.0 0.00 0.41 0.00 95 1019.7
20260506132017 31 0.0 0.0 0.00 0.41 0.00 95 1019.6
20260506131537 31 0.0 0.0 0.00 0.41 0.00 95 1019.6
20260506131038 31 0.0 0.0 0.00 0.41 0.00 95 1019.5
20260506130517 31 0.0 0.0 0.00 0.41 0.00 95 1019.2
20260506130018 31 0.0 0.0 0.00 0.41 0.00 95 1019.2
20260506125517 31 0.0 0.0 0.00 0.41 0.00 95 1019.2
20260506125017 31 0.0 0.0 0.00 0.41 0.00 95 1019.1
20260506124517 31 0.0 0.0 0.00 0.41 0.00 95 1019.1
20260506124017 31 0.0 0.0 0.00 0.41 0.00 95 1018.9
20260506123518 31 0.0 0.0 0.00 0.41 0.00 95 1019.0
20260506123017 31 0.0 0.0 0.00 0.41 0.00 95 1018.8
20260506122517 31 0.0 0.0 0.00 0.41 0.00 95 1018.8
20260506122037 31 0.0 0.0 0.00 0.41 0.00 95 1018.8
20260506121517 31 0.0 0.0 0.00 0.41 0.00 95 1018.8
20260506121017 31 0.0 0.0 0.00 0.41 0.00 95 1018.7
20260506120517 31 0.0 0.0 0.00 0.41 0.00 95 1018.6
20260506120037 31 0.0 0.0 0.00 0.42 0.00 95 1018.6
20260506115517 31 0.0 0.0 0.00 0.42 0.00 95 1018.6
20260506115037 31 0.0 0.0 0.00 0.42 0.00 95 1018.5
20260506114537 31 0.0 0.0 0.00 0.42 0.00 95 1018.5
20260506114037 31 0.0 0.0 0.00 0.43 0.00 95 1018.5
20260506113517 31 0.0 0.0 0.00 0.43 0.00 95 1018.4
20260506113017 31 0.0 0.0 0.00 0.43 0.00 95 1018.2
20260506112517 31 0.0 0.0 0.00 0.44 0.00 95 1018.2
20260506112018 31 0.0 0.0 0.00 0.44 0.00 95 1018.1
20260506111617 31 0.0 0.0 0.00 0.44 0.00 95 1018.0
20260506111017 31 0.0 0.0 0.00 0.44 0.00 95 1017.8
20260506110517 31 0.0 0.0 0.00 0.44 0.00 95 1017.8
20260506110017 31 0.0 0.0 0.00 0.44 0.00 95 1017.7
20260506105537 31 0.0 0.0 0.00 0.45 0.00 95 1017.7
20260506105017 31 0.0 0.0 0.00 0.45 0.00 95 1017.7
20260506104517 31 0.0 0.0 0.00 0.46 0.00 95 1017.6
20260506104037 31 0.0 0.0 0.00 0.46 0.00 95 1017.6
20260506103517 31 0.0 0.0 0.00 0.46 0.00 95 1017.6
20260506103017 31 0.0 0.0 0.00 0.46 0.00 95 1017.7
20260506102518 31 0.0 0.0 0.00 0.47 0.00 95 1017.7
20260506102017 31 0.0 0.0 0.00 0.47 0.00 95 1017.6
20260506101517 31 0.0 0.0 0.00 0.48 0.00 95 1017.5
20260506101017 31 0.0 0.0 0.00 0.48 0.00 95 1017.5
20260506100517 30 0.0 0.0 0.00 0.49 0.00 95 1017.6
20260506100017 30 0.0 0.0 0.00 0.50 0.00 95 1017.6
20260506095517 31 0.0 0.0 0.00 0.50 0.00 95 1017.7
20260506095017 31 0.0 0.0 0.00 0.50 0.00 95 1017.6
20260506094537 31 0.0 0.0 0.00 0.50 0.00 95 1017.8
20260506094018 31 0.0 0.0 0.00 0.50 0.00 95 1017.7
20260506093517 31 0.0 0.0 0.00 0.50 0.00 95 1017.7
20260506093038 31 0.0 0.0 0.00 0.51 0.00 95 1017.7
20260506092517 31 0.0 0.0 0.00 0.51 0.00 95 1017.6
20260506092037 31 0.0 0.0 0.00 0.51 0.00 95 1017.5
20260506091517 31 0.0 0.0 0.00 0.51 0.00 95 1017.3
20260506091017 31 0.0 0.0 0.00 0.51 0.00 95 1017.7
20260506090517 31 0.0 0.0 0.00 0.51 0.00 95 1017.8
20260506090018 31 0.0 0.0 0.00 0.51 0.00 95 1017.6
20260506085517 31 0.0 0.0 0.00 0.51 0.00 95 1017.6
20260506085016 31 0.0 0.0 0.00 0.51 0.00 95 1017.4
20260506084517 31 0.0 0.0 0.00 0.52 0.00 95 1017.5
20260506084017 31 0.0 0.0 0.00 0.52 0.00 95 1017.5
20260506083537 31 0.0 0.0 0.00 0.53 0.00 95 1017.5
20260506083017 31 0.0 0.0 0.00 0.53 0.00 95 1017.5
20260506082516 31 0.0 0.0 0.00 0.54 0.00 95 1017.5
20260506082017 31 0.0 0.0 0.00 0.55 0.00 95 1017.5
20260506081518 31 0.0 0.0 0.00 0.55 0.00 95 1017.7
20260506081016 31 0.0 0.0 0.00 0.56 0.00 95 1017.6
20260506080516 31 0.0 0.0 0.00 0.57 0.00 95 1017.7
20260506073516 32 22 2.0 5.0 0.00 0.58 0.00 95 1018.1
20260506073016 32 0 3.0 7.0 0.00 0.58 0.00 95 1018.0
20260506072516 32 0 4.0 6.0 0.00 0.58 0.00 95 1017.8
20260506072016 32 0 3.0 5.0 0.00 0.58 0.00 95 1017.7
20260506071517 32 0 3.0 6.0 0.00 0.58 0.00 95 1017.6
20260506071016 32 0.0 1.0 0.00 0.58 0.00 95 1017.7